• In Latvia
  • List of Countries
  • For 7 days
  • Water Temperature
  • Satellite Maps
  • Weather Map
  • Weather Widgets
  • user-avatar
    Login

    Hourly Weather Río Gallegos

    Today, 20 July, Thursday

    Time Temperature Precipitation Wind Pressure Humidity
    00:00 +3°C° 0 mm 3 mps 754 mmHg 85%
    01:00 +3°C° 0 mm 3 mps 754 mmHg 84%
    02:00 +3°C° 0 mm 3 mps 754 mmHg 84%
    03:00 +3°C° 0 mm 3 mps 754 mmHg 84%
    04:00 +3°C° 0 mm 3 mps 754 mmHg 84%
    05:00 +3°C° 0.1 mm 3 mps 755 mmHg 84%
    06:00 +3°C° 0.1 mm 3 mps 755 mmHg 85%
    07:00 +3°C° 0 mm 4 mps 755 mmHg 87%
    08:00 +3°C° 0.4 mm 4 mps 755 mmHg 88%
    09:00 +3°C° 0.4 mm 4 mps 756 mmHg 88%
    10:00 +3°C° 0.4 mm 4 mps 756 mmHg 88%
    11:00 +4°C° 0.1 mm 4 mps 756 mmHg 84%
    12:00 +5°C° 0.1 mm 4 mps 756 mmHg 80%
    13:00 +6°C° 0.1 mm 4 mps 756 mmHg 76%
    14:00 +5°C° 0 mm 4 mps 756 mmHg 78%
    15:00 +5°C° 0 mm 4 mps 756 mmHg 79%
    16:00 +4°C° 0 mm 4 mps 756 mmHg 81%
    17:00 +4°C° 0 mm 4 mps 756 mmHg 80%
    18:00 +4°C° 0 mm 4 mps 757 mmHg 79%
    19:00 +4°C° 0 mm 4 mps 757 mmHg 78%
    20:00 +4°C° 0 mm 4 mps 757 mmHg 77%
    21:00 +3°C° 0 mm 3 mps 757 mmHg 76%
    22:00 +3°C° 0 mm 3 mps 757 mmHg 75%
    23:00 +3°C° 0 mm 3 mps 756 mmHg 75%

    Tomorrow, 21 July, Friday

    Time Temperature Precipitation Wind Pressure Humidity
    00:00 +3°C° 0 mm 3 mps 756 mmHg 75%
    01:00 +3°C° 0 mm 3 mps 755 mmHg 74%
    02:00 +3°C° 0 mm 4 mps 755 mmHg 76%
    03:00 +3°C° 0 mm 4 mps 754 mmHg 77%
    04:00 +2°C° 0 mm 5 mps 753 mmHg 79%
    05:00 +2°C° 0 mm 6 mps 752 mmHg 82%
    06:00 +2°C° 0 mm 7 mps 751 mmHg 84%
    07:00 +2°C° 0 mm 8 mps 750 mmHg 87%
    08:00 +2°C° 0.4 mm 9 mps 749 mmHg 86%
    09:00 +2°C° 0.4 mm 9 mps 748 mmHg 85%
    10:00 +2°C° 0.4 mm 10 mps 747 mmHg 83%
    11:00 +2°C° 0.4 mm 9 mps 745 mmHg 82%
    12:00 +4°C° 0.4 mm 7 mps 744 mmHg 81%
    13:00 +4°C° 0.4 mm 6 mps 743 mmHg 80%
    14:00 +5°C° 0 mm 5 mps 743 mmHg 81%
    15:00 +4°C° 0 mm 4 mps 742 mmHg 82%
    16:00 +5°C° 0 mm 2 mps 742 mmHg 83%
    17:00 +4°C° 0 mm 3 mps 742 mmHg 81%
    18:00 +4°C° 0 mm 3 mps 742 mmHg 80%
    19:00 +4°C° 0 mm 4 mps 742 mmHg 79%
    20:00 +3°C° 0 mm 4 mps 742 mmHg 76%
    21:00 +2°C° 0 mm 5 mps 742 mmHg 74%
    22:00 +2°C° 0 mm 5 mps 742 mmHg 71%
    23:00 +2°C° 0 mm 6 mps 742 mmHg 71%

    Day after tomorrow, 22 July, Saturday

    Time Temperature Precipitation Wind Pressure Humidity
    00:00 +2°C° 0 mm 6 mps 742 mmHg 70%
    01:00 +1°C° 0 mm 6 mps 742 mmHg 70%
    02:00 +2°C° 0 mm 7 mps 742 mmHg 69%
    03:00 +2°C° 0 mm 7 mps 741 mmHg 68%
    04:00 +1°C° 0 mm 8 mps 741 mmHg 67%
    05:00 +1°C° 0 mm 8 mps 741 mmHg 66%
    06:00 +1°C° 0 mm 8 mps 741 mmHg 65%
    07:00 +1°C° 0 mm 8 mps 741 mmHg 64%
    08:00 +2°C° 0 mm 8 mps 741 mmHg 61%
    09:00 +2°C° 0 mm 8 mps 741 mmHg 59%
    10:00 +4°C° 0 mm 8 mps 741 mmHg 56%
    11:00 +5°C° 0 mm 8 mps 740 mmHg 54%
    12:00 +5°C° 0 mm 8 mps 740 mmHg 52%
    13:00 +6°C° 0 mm 8 mps 740 mmHg 49%
    14:00 +5°C° 0 mm 7 mps 739 mmHg 53%
    15:00 +4°C° 0 mm 6 mps 739 mmHg 57%
    16:00 +3°C° 0 mm 5 mps 739 mmHg 61%
    17:00 +3°C° 0 mm 5 mps 739 mmHg 64%
    18:00 +3°C° 0 mm 5 mps 739 mmHg 66%
    19:00 +2°C° 0 mm 5 mps 739 mmHg 69%
    20:00 +2°C° 0 mm 5 mps 739 mmHg 71%
    21:00 +1°C° 0 mm 6 mps 739 mmHg 74%
    22:00 +1°C° 0 mm 6 mps 739 mmHg 76%
    23:00 0°C° 0 mm 7 mps 740 mmHg 75%

    23 July, Sunday

    Time Temperature Precipitation Wind Pressure Humidity
    00:00 0°C° 0 mm 8 mps 740 mmHg 75%
    01:00 0°C° 0 mm 9 mps 741 mmHg 75%
    02:00 0°C° 0 mm 9 mps 741 mmHg 76%
    03:00 0°C° 0 mm 9 mps 742 mmHg 77%
    04:00 0°C° 0 mm 9 mps 742 mmHg 79%
    05:00 0°C° 0 mm 8 mps 742 mmHg 79%
    06:00 0°C° 0 mm 8 mps 743 mmHg 79%
    07:00 -1°C° 0 mm 7 mps 743 mmHg 80%
    08:00 0°C° 0 mm 8 mps 744 mmHg 76%
    09:00 +1°C° 0 mm 8 mps 744 mmHg 71%
    10:00 +1°C° 0 mm 8 mps 744 mmHg 67%
    11:00 +2°C° 0 mm 9 mps 744 mmHg 65%
    12:00 +3°C° 0 mm 9 mps 744 mmHg 62%
    13:00 +3°C° 0 mm 9 mps 745 mmHg 60%
    14:00 +4°C° 0 mm 8 mps 745 mmHg 63%
    15:00 +3°C° 0 mm 7 mps 745 mmHg 66%
    16:00 +2°C° 0 mm 5 mps 746 mmHg 68%
    17:00 +2°C° 0 mm 5 mps 746 mmHg 68%
    18:00 +2°C° 0 mm 5 mps 746 mmHg 68%
    19:00 +2°C° 0 mm 5 mps 746 mmHg 68%
    20:00 +2°C° 0 mm 5 mps 746 mmHg 67%
    21:00 +1°C° 0 mm 5 mps 746 mmHg 65%
    22:00 +1°C° 0 mm 5 mps 746 mmHg 64%
    23:00 +1°C° 0 mm 6 mps 745 mmHg 67%

    24 July, Monday

    Time Temperature Precipitation Wind Pressure Humidity
    00:00 +1°C° 0 mm 6 mps 745 mmHg 70%
    01:00 0°C° 0 mm 7 mps 744 mmHg 73%
    02:00 +2°C° 0 mm 7 mps 743 mmHg 70%
    03:00 +1°C° 0 mm 8 mps 743 mmHg 66%
    04:00 +2°C° 0 mm 8 mps 742 mmHg 63%
    05:00 +1°C° 0 mm 8 mps 742 mmHg 65%
    06:00 +2°C° 0 mm 7 mps 742 mmHg 67%
    07:00 +2°C° 0 mm 7 mps 742 mmHg 69%
    08:00 +2°C° 0 mm 6 mps 742 mmHg 68%
    09:00 +2°C° 0 mm 5 mps 742 mmHg 67%
    10:00 +3°C° 0 mm 4 mps 743 mmHg 65%
    11:00 +3°C° 0 mm 5 mps 743 mmHg 60%
    12:00 +4°C° 0 mm 6 mps 743 mmHg 55%
    13:00 +5°C° 0 mm 7 mps 744 mmHg 49%
    14:00 +5°C° 0 mm 7 mps 744 mmHg 51%
    15:00 +4°C° 0 mm 7 mps 744 mmHg 52%
    16:00 +4°C° 0 mm 7 mps 744 mmHg 53%
    17:00 +3°C° 0 mm 7 mps 745 mmHg 57%
    18:00 +3°C° 0 mm 7 mps 745 mmHg 60%
    19:00 +3°C° 0 mm 7 mps 745 mmHg 63%
    20:00 +3°C° 0.1 mm 7 mps 746 mmHg 65%
    21:00 +3°C° 0.1 mm 7 mps 746 mmHg 67%
    22:00 +3°C° 0.1 mm 7 mps 746 mmHg 68%
    23:00 +3°C° 0.1 mm 7 mps 746 mmHg 67%

    25 July, Tuesday

    Time Temperature Precipitation Wind Pressure Humidity
    00:00 +3°C° 0.1 mm 7 mps 746 mmHg 66%
    01:00 +3°C° 0.1 mm 7 mps 746 mmHg 66%
    02:00 +3°C° 0 mm 7 mps 747 mmHg 65%
    03:00 +3°C° 0 mm 7 mps 747 mmHg 65%
    04:00 +3°C° 0 mm 7 mps 747 mmHg 64%
    05:00 +3°C° 0 mm 7 mps 748 mmHg 64%
    06:00 +3°C° 0 mm 7 mps 748 mmHg 63%
    07:00 +3°C° 0 mm 7 mps 748 mmHg 63%
    08:00 +4°C° 0 mm 7 mps 749 mmHg 63%
    09:00 +4°C° 0 mm 6 mps 749 mmHg 62%
    10:00 +4°C° 0 mm 6 mps 749 mmHg 62%
    11:00 +5°C° 0 mm 6 mps 749 mmHg 61%
    12:00 +7°C° 0 mm 6 mps 748 mmHg 59%
    13:00 +8°C° 0 mm 7 mps 748 mmHg 57%
    14:00 +8°C° 0 mm 7 mps 748 mmHg 56%
    15:00 +7°C° 0 mm 8 mps 748 mmHg 55%
    16:00 +7°C° 0 mm 8 mps 747 mmHg 54%
    17:00 +6°C° 0 mm 9 mps 747 mmHg 56%
    18:00 +6°C° 0 mm 9 mps 747 mmHg 57%
    19:00 +6°C° 0 mm 9 mps 747 mmHg 58%
    20:00 +6°C° 0 mm 9 mps 746 mmHg 58%
    21:00 +6°C° 0 mm 10 mps 746 mmHg 57%
    22:00 +6°C° 0 mm 10 mps 745 mmHg 57%
    23:00 +6°C° 0 mm 10 mps 745 mmHg 58%
    Show more